GFSNGP_850_rhum_288.txt.gz
RH
57 65 70 72 81 86 84 86 85 86 85 84 87 88 93 96 95 94 96 97 99 99 96 95 95 95 96 96 97 100 100 100 100 100 100 100 100 95 86 98 100 95 85 75
69 62 70 79 72 73 80 82 80 85 85 84 89 90 90 95 95 94 96 98 100 99 96 95 95 96 96 96 96 97 100 100 100 100 100 100 100 100 99 99 98 100 99 88
62 62 70 81 83 79 80 81 87 84 84 84 84 88 94 95 98 98 99 100 99 96 96 96 96 96 95 96 96 96 97 99 100 100 100 100 100 100 100 100 99 99 98 98
69 76 82 86 69 61 79 82 82 83 84 87 93 97 100 99 100 100 97 96 96 96 95 96 96 95 95 96 96 96 97 97 98 100 100 100 100 100 100 100 100 99 99 99
76 68 74 83 82 81 85 84 81 85 84 87 89 97 96 100 97 97 98 97 97 96 97 96 95 95 95 96 96 96 96 96 96 97 98 100 100 100 100 100 100 100 100 100
83 76 67 76 70 84 84 80 80 84 84 89 80 78 78 100 98 98 98 97 97 96 96 95 95 95 95 96 96 95 95 96 96 97 97 98 99 100 100 100 100 100 100 100
78 83 80 77 81 91 93 90 82 89 91 92 86 95 100 100 100 99 99 96 96 96 96 96 95 96 95 95 95 96 96 96 96 96 97 97 98 99 99 100 100 100 100 100
88 91 94 91 74 80 90 89 93 93 96 95 97 98 99 100 100 99 97 95 95 96 96 96 95 95 95 95 96 96 96 96 96 96 96 97 97 98 98 99 100 100 100 100
92 89 93 100 98 100 100 98 96 98 100 100 96 97 100 100 100 100 97 96 96 96 96 96 96 96 95 96 96 95 95 95 96 95 96 96 97 97 97 97 98 98 98 99
82 85 90 95 100 100 100 100 100 100 100 100 100 100 100 100 100 100 100 97 96 95 96 96 95 96 96 96 96 95 95 95 96 95 96 96 96 96 96 96 96 96 97 97
89 92 98 100 100 100 100 100 100 100 100 100 100 100 100 100 100 100 100 95 96 95 96 97 95 96 97 94 94 95 94 95 95 96 95 95 96 96 96 96 96 96 96 96
87 98 98 98 98 97 97 99 99 100 100 100 100 100 97 96 99 100 98 94 92 91 92 95 95 96 93 86 79 80 89 96 95 94 95 95 94 95 96 96 96 96 96 96
98 99 99 100 100 98 98 98 100 100 99 98 100 100 98 92 92 96 98 96 92 94 95 97 95 91 86 79 73 70 72 99 87 91 82 87 94 95 95 94 91 86 94 96
100 99 100 98 100 99 98 98 99 100 100 98 98 98 99 93 87 85 87 94 93 96 94 96 96 93 84 78 71 66 67 81 83 77 76 74 71 71 75 86 91 88 68 55
99 99 99 99 100 100 97 94 95 94 96 97 99 97 95 92 88 83 81 78 87 88 85 92 92 93 86 79 78 78 72 79 81 76 74 75 70 68 66 68 73 74 65 56
99 100 100 100 100 100 99 98 96 94 94 94 97 94 93 93 90 86 79 74 73 78 80 86 89 94 91 82 77 79 84 83 83 79 72 70 72 70 70 69 72 74 73 71
100 95 99 100 100 100 100 100 100 100 95 96 95 94 92 90 86 81 76 72 75 83 86 87 85 92 94 83 78 83 82 83 84 81 75 72 71 73 77 78 80 80 83 83
100 100 100 100 100 100 100 100 100 100 100 96 94 94 91 89 86 83 79 74 70 74 76 78 91 100 89 83 78 82 85 86 84 81 79 80 78 77 79 83 84 82 80 82
100 100 100 100 100 100 100 100 100 100 100 100 99 95 93 89 86 81 79 79 73 70 74 71 95 100 83 89 85 77 86 87 87 85 82 87 84 83 82 86 90 88 83 81
100 100 100 100 100 100 100 100 100 100 100 99 98 99 96 89 81 77 75 78 80 82 98 94 69 100 96 81 77 76 89 89 89 88 87 87 86 89 90 91 92 89 88 86
100 100 100 100 100 100 100 100 99 98 98 97 91 90 90 88 86 80 76 72 72 78 100 86 68 94 100 96 80 82 90 91 91 90 89 89 88 89 91 90 88 87 86 86
99 98 98 98 97 95 100 99 99 96 95 92 90 91 90 84 83 78 81 84 74 90 100 93 74 98 100 89 66 74 91 94 94 94 93 92 91 90 91 91 90 91 91 89
100 100 100 100 98 93 92 96 96 97 93 91 88 90 92 89 87 85 76 79 84 97 100 91 100 100 99 80 59 61 84 94 95 95 95 93 92 92 92 92 92 93 93 90
98 98 100 100 99 98 94 91 92 92 94 93 94 95 94 90 81 82 84 85 89 92 100 86 100 100 100 68 62 59 71 93 96 97 98 99 98 95 95 94 95 95 95 95
100 100 100 99 96 95 93 92 88 90 94 90 87 86 87 90 94 88 90 90 90 96 88 78 86 73 67 66 65 62 61 82 95 95 97 97 97 96 97 98 97 96 98 100
99 99 98 100 100 99 97 97 96 96 98 100 95 87 91 94 95 94 94 95 94 90 92 82 81 75 67 64 65 64 62 65 90 97 97 96 96 97 98 99 99 99 99 98
98 100 100 98 98 100 100 100 100 100 98 100 94 92 97 95 92 98 100 94 93 91 86 86 85 81 72 65 63 64 64 63 79 94 97 97 97 98 99 99 99 100 100 98

GFSNGP_850_rhum_291.txt.gz
RH
50 52 64 66 74 78 81 76 86 83 84 83 80 86 86 90 95 95 97 98 96 96 95 96 94 95 96 96 96 97 99 100 100 100 100 100 100 99 99 95 93 99 99 100
61 49 52 68 68 71 79 74 77 82 83 76 81 87 82 92 95 95 97 98 96 96 95 95 95 96 96 96 96 96 96 98 100 100 100 100 100 100 100 99 94 88 98 100
63 77 56 74 65 69 75 74 82 83 83 74 80 88 91 92 96 98 98 96 96 96 95 96 96 96 96 96 96 96 96 97 98 100 100 100 99 100 100 100 100 95 92 100
71 71 82 80 58 53 68 75 73 75 79 81 90 97 99 100 99 98 96 97 95 96 96 95 96 95 96 96 96 95 96 96 97 98 100 100 100 100 100 100 100 100 96 100
85 55 78 80 74 80 77 88 74 79 72 76 78 85 97 98 98 96 96 96 97 97 97 96 95 96 96 96 96 95 95 96 96 97 97 100 100 100 100 100 99 100 99 99
80 72 67 74 63 72 72 83 72 76 76 80 71 74 75 97 98 98 98 97 97 96 96 96 95 96 95 96 95 95 95 96 96 96 97 97 99 100 100 100 100 99 100 100
77 69 86 71 68 76 92 90 74 77 82 87 83 93 98 99 99 96 97 98 96 96 96 96 96 96 96 96 95 96 96 96 96 96 96 97 97 98 100 100 100 100 100 100
81 84 90 84 68 81 88 78 80 81 84 88 90 90 94 97 99 98 98 95 95 96 96 96 96 95 95 95 97 96 95 96 96 96 96 96 96 97 97 99 100 100 100 100
89 88 90 95 92 99 98 90 89 89 88 88 86 84 86 92 95 99 100 100 97 96 96 96 96 96 95 96 95 95 94 95 96 96 96 96 96 96 97 97 97 97 98 99
86 84 87 94 92 94 97 96 96 92 92 91 92 88 92 93 96 100 100 100 100 98 95 95 95 96 97 96 96 96 95 95 96 95 96 96 95 95 96 96 96 97 96 97
85 85 92 94 99 100 100 97 97 97 97 97 100 99 100 100 100 100 100 100 100 100 100 98 96 95 94 91 93 93 94 96 95 95 96 96 95 95 96 96 96 96 96 96
87 95 97 97 100 100 100 100 100 100 100 100 100 100 100 100 100 100 98 94 92 91 93 93 94 87 78 72 72 79 92 96 95 95 95 95 95 96 96 96 96 96 96 96
95 100 100 100 95 93 94 99 100 99 98 98 99 100 98 93 88 89 84 89 90 92 96 95 92 88 76 71 76 74 77 98 90 92 95 95 95 95 94 95 96 95 96 96
100 99 99 99 99 95 96 98 99 97 98 98 98 100 98 97 90 79 75 76 84 86 87 92 94 91 81 72 78 80 79 100 94 85 93 94 82 84 93 95 94 92 85 95
100 96 96 97 99 100 100 99 100 99 96 97 98 95 96 93 88 86 78 71 73 81 79 77 86 91 82 74 75 82 83 94 92 84 91 98 79 78 79 80 80 80 67 60
99 98 96 97 99 100 100 100 100 100 100 100 100 96 91 92 89 83 81 74 69 70 75 74 77 89 87 73 71 78 79 86 94 78 81 84 76 76 76 79 80 80 79 92
98 92 96 95 99 100 100 100 100 100 100 100 100 100 98 88 87 81 76 74 71 72 81 83 83 82 88 75 69 80 81 81 81 76 77 81 82 78 83 84 83 83 83 96
100 100 100 100 100 100 100 100 100 100 100 100 100 100 100 100 92 82 76 73 71 70 86 82 99 95 79 76 86 75 83 85 84 83 83 81 89 80 81 82 81 79 79 79
100 100 100 100 100 100 100 100 100 100 100 100 100 100 100 100 100 86 76 74 84 81 87 81 100 94 76 85 90 67 85 87 87 86 86 88 85 84 84 84 82 80 79 78
100 100 100 100 100 100 100 100 100 100 100 100 100 100 100 100 100 89 76 80 99 81 99 100 74 98 96 94 80 66 82 86 89 90 90 89 90 89 90 87 85 83 82 82
100 100 100 100 100 100 100 100 100 100 100 100 100 100 100 100 100 97 95 99 97 81 100 99 69 93 100 93 78 57 74 84 86 87 88 90 90 90 90 90 88 87 83 81
100 100 100 100 100 100 100 100 98 98 100 100 99 100 93 93 100 100 100 94 82 99 100 100 84 96 100 90 79 56 62 82 89 90 89 90 91 91 92 92 91 92 90 88
100 100 100 100 100 100 95 96 95 95 93 92 90 91 93 92 92 100 100 97 98 100 100 100 100 100 100 88 66 57 55 74 89 92 92 92 92 91 90 92 93 94 94 92
100 100 100 100 100 98 100 100 98 92 90 90 90 91 91 89 100 100 100 100 100 100 100 100 100 100 100 79 63 61 58 60 83 94 94 95 95 95 95 95 95 95 95 94
100 99 99 100 100 100 100 100 100 100 100 100 100 100 100 100 100 95 95 93 99 100 100 100 100 100 88 71 66 64 64 61 65 89 96 96 96 97 98 99 99 96 96 97
100 100 100 100 100 100 100 100 100 100 100 100 100 100 100 100 100 100 100 100 100 100 100 98 85 81 82 77 69 64 64 65 63 77 95 97 98 98 98 99 98 98 97 98
100 100 100 100 100 100 100 100 100 100 100 100 100 90 100 100 100 100 100 97 89 88 87 85 85 84 85 80 73 66 63 63 65 64 87 98 99 99 99 98 99 99 99 99

GFSNGP_850_rhum_297.txt.gz
RH
74 70 82 86 92 90 93 88 85 83 100 96 98 94 88 100 88 94 97 100 96 96 94 95 95 94 94 95 96 96 96 95 95 93 94 97 100 96 98 99 99 100 88 82
86 68 67 83 91 94 97 100 100 100 96 92 84 88 90 93 98 100 100 100 97 94 96 95 96 95 95 96 95 96 96 96 96 93 96 98 100 100 100 100 90 86 98 84
91 64 65 83 94 89 94 97 89 97 85 100 96 86 94 98 99 100 99 97 96 96 97 95 96 96 96 95 96 96 96 96 96 94 97 97 99 100 100 96 99 99 96 85
93 93 98 90 73 69 88 99 99 98 99 96 87 76 95 99 96 94 96 97 95 95 95 95 96 96 95 96 95 96 96 95 95 96 97 96 98 100 100 99 98 97 85 93
96 96 94 97 93 90 88 98 99 98 98 88 74 65 100 78 90 97 98 98 97 97 97 96 96 96 96 95 96 95 95 96 95 96 96 97 97 99 100 100 100 100 98 100
98 94 99 100 90 89 74 100 97 96 100 100 81 98 91 96 95 92 96 99 97 96 97 96 95 95 96 95 96 95 96 96 96 96 96 96 97 97 99 100 100 100 100 99
97 94 96 92 93 91 97 96 98 99 100 100 100 100 98 97 85 98 98 97 98 96 97 97 96 96 95 96 96 96 96 97 94 96 96 97 97 97 97 99 100 100 100 100
93 100 99 96 92 92 98 98 97 93 96 98 97 91 97 95 93 94 96 95 95 96 96 96 97 95 95 96 96 96 96 95 95 96 96 96 97 96 97 96 99 100 100 99
97 97 98 99 98 99 98 98 100 97 100 100 98 96 100 95 92 93 97 90 95 97 96 96 96 96 96 97 96 96 95 96 96 95 96 96 95 95 96 96 97 97 98 99
99 98 98 99 98 97 98 98 99 94 100 99 100 98 94 96 93 93 87 83 89 86 89 93 96 96 97 96 96 96 95 96 96 95 97 95 95 96 95 95 96 96 96 97
100 93 98 98 98 98 93 90 88 88 94 98 98 96 98 96 98 96 88 80 82 89 86 86 94 83 83 93 95 96 96 96 94 96 95 96 96 96 96 96 97 97 96 96
100 100 100 99 100 99 95 96 96 97 92 94 99 98 98 96 99 99 93 80 74 84 82 83 88 81 74 76 89 96 93 96 95 95 95 95 95 96 95 96 96 97 98 97
100 100 99 100 100 100 98 98 100 100 97 95 96 100 99 97 94 97 87 80 74 78 84 86 80 85 75 68 82 91 92 99 91 94 96 96 95 95 95 96 96 95 95 96
98 93 96 94 97 96 100 100 99 97 98 97 96 96 98 96 90 88 83 80 77 74 81 83 84 88 82 73 74 83 89 100 91 88 95 95 95 96 95 95 94 94 95 96
94 100 100 100 100 100 100 100 98 96 97 95 96 93 94 94 91 90 84 78 74 73 76 77 91 82 80 83 63 83 82 100 92 86 97 94 90 95 95 95 96 95 94 94
89 90 90 90 91 89 100 97 100 100 100 100 98 95 96 96 92 94 86 75 72 78 84 84 100 91 85 94 68 69 82 94 97 86 85 91 88 85 86 83 88 95 95 96
99 94 95 96 96 99 100 100 100 100 100 100 99 100 98 96 94 86 78 72 70 82 88 95 100 94 88 99 90 56 79 85 88 83 86 94 93 90 91 91 87 87 96 100
100 100 98 100 100 100 100 100 100 100 100 98 100 100 99 98 99 94 82 72 69 72 78 90 100 98 86 98 95 59 58 81 86 88 86 89 93 90 91 90 90 87 83 84
100 98 97 100 100 100 100 100 100 100 100 100 99 100 100 99 98 89 84 76 75 69 69 85 100 86 93 94 97 70 50 65 81 87 87 89 86 89 89 89 91 92 88 83
96 96 100 100 97 97 98 97 100 99 98 99 98 95 95 91 91 86 84 81 84 89 99 99 98 75 96 100 99 78 56 52 76 86 87 88 88 89 91 90 91 93 90 89
99 100 100 100 100 99 100 100 100 96 95 99 100 97 96 90 88 88 86 81 74 80 100 100 95 79 99 100 94 81 58 51 55 82 91 90 90 93 93 95 93 92 92 92
100 100 100 100 100 96 96 98 99 100 97 94 95 96 93 88 88 84 83 88 85 97 100 100 96 89 100 94 90 82 62 58 55 62 85 90 91 94 96 96 95 97 97 95
100 100 100 100 100 98 95 97 100 100 99 99 98 97 98 98 98 99 88 81 100 99 100 99 99 100 100 99 93 81 66 59 58 57 70 91 94 94 94 95 97 98 98 96
100 100 100 100 100 97 94 90 97 95 95 95 94 97 100 98 90 89 94 100 100 100 100 100 100 100 100 100 94 79 68 63 58 58 60 84 99 100 99 98 99 100 98 98
100 100 99 100 100 100 96 96 91 84 93 92 89 89 92 96 100 97 94 95 100 100 100 100 100 100 98 89 82 76 72 70 63 58 60 60 88 99 100 100 100 98 100 100
100 100 100 100 100 100 100 100 92 100 100 100 97 88 88 98 100 98 99 100 100 100 100 93 87 85 80 80 87 83 75 76 69 62 58 61 66 95 98 99 100 100 100 98
96 100 98 100 95 100 99 100 100 98 95 94 95 91 100 100 100 100 100 99 96 91 88 84 80 79 78 78 83 84 79 80 78 68 58 57 60 79 96 98 98 99 99 99

GFSNGP_850_rhum_300.txt.gz
RH
57 56 82 76 86 95 96 90 86 78 96 87 96 99 94 92 90 97 95 92 91 95 88 84 87 85 86 90 95 97 91 91 92 95 99 100 100 96 91 88 90 73 79 81
92 67 74 84 88 94 95 96 99 100 100 78 91 85 82 95 96 100 99 98 95 93 88 92 93 90 91 94 94 95 94 93 95 96 98 97 97 100 96 86 96 90 74 94
91 70 71 92 89 98 96 97 86 97 80 100 99 81 85 98 100 98 99 99 97 95 94 96 95 95 96 95 95 95 95 95 95 95 96 97 98 100 99 93 100 94 85 87
92 92 100 80 88 77 90 96 98 94 99 98 92 71 88 100 100 92 97 100 98 95 94 96 95 95 96 95 95 95 95 96 95 95 96 96 96 99 100 100 100 99 99 94
96 97 90 94 93 97 97 94 97 98 98 94 78 74 100 84 95 90 100 98 99 98 98 96 96 96 96 95 95 96 96 95 94 96 96 96 96 97 100 100 100 99 98 100
94 99 99 99 91 97 96 96 100 97 100 100 86 99 91 100 94 84 88 95 98 97 96 95 95 96 95 96 96 96 95 96 95 96 96 96 96 97 98 99 100 100 100 99
97 97 98 94 96 96 98 96 98 97 100 100 100 100 98 96 83 86 88 86 98 96 97 97 96 96 95 96 96 96 96 95 95 96 96 96 96 97 97 97 98 100 100 100
95 98 98 96 92 93 99 98 99 98 100 100 100 96 96 91 89 86 82 75 80 88 93 96 96 96 96 96 96 96 95 96 96 95 96 95 95 96 96 97 96 98 99 100
99 98 98 100 100 100 98 98 100 98 100 100 99 100 99 94 94 90 86 78 76 85 77 81 96 97 96 96 96 95 95 94 95 96 96 96 94 95 95 96 96 96 96 99
94 97 100 100 98 97 99 98 98 95 98 95 98 99 95 96 95 93 88 87 77 78 79 81 84 81 88 96 96 95 95 95 95 95 97 94 95 95 96 96 96 96 96 97
100 92 98 98 98 97 96 96 92 92 96 98 98 97 99 99 97 96 90 87 79 76 82 86 85 78 83 74 95 95 96 95 95 96 96 95 96 96 96 96 96 97 95 97
99 99 100 98 99 98 97 96 94 99 91 94 100 99 100 98 98 99 96 84 76 73 77 82 87 82 82 69 84 96 94 94 96 95 95 96 94 95 96 96 97 97 98 97
100 99 100 100 97 100 99 98 95 98 96 97 96 100 100 99 98 100 91 81 75 77 79 83 89 82 87 77 68 87 98 98 93 94 96 96 94 95 94 96 97 96 96 96
100 97 94 98 100 100 99 98 100 100 100 99 99 97 100 100 97 94 91 85 76 76 80 83 92 85 89 86 58 77 88 100 95 87 97 96 95 96 96 95 95 93 95 95
95 99 100 100 99 96 97 100 98 96 99 94 94 99 100 99 97 97 96 89 75 74 74 81 97 82 88 92 63 60 81 100 97 87 93 94 91 96 95 96 95 95 95 94
97 94 94 97 97 97 98 94 98 100 99 100 100 97 99 100 100 98 94 88 80 80 80 87 100 84 92 99 73 49 68 83 93 86 89 91 87 88 90 94 95 96 95 96
99 97 97 98 99 100 100 100 100 100 100 100 100 100 99 99 96 88 81 80 79 82 88 94 100 92 94 100 89 64 47 74 82 80 85 93 94 90 95 91 89 92 94 98
100 100 98 98 100 100 100 99 100 100 100 99 100 99 96 97 98 92 84 77 73 66 74 87 95 100 91 98 96 75 50 56 79 83 85 88 93 89 91 94 94 91 90 88
97 98 97 100 100 100 100 100 100 100 99 99 98 96 95 93 95 91 85 78 78 71 70 86 100 88 92 91 100 83 61 48 63 81 81 87 88 90 90 93 94 95 94 90
96 97 98 100 99 100 100 100 100 99 98 100 98 96 94 89 89 87 84 80 82 81 98 99 98 75 100 93 98 88 74 52 50 73 85 87 86 90 94 96 96 95 94 96
99 99 99 100 98 96 97 100 100 97 96 100 100 97 97 92 90 91 88 80 72 77 100 100 90 74 97 100 100 94 79 58 54 53 79 90 92 90 89 94 95 96 95 95
99 100 99 98 99 95 93 95 96 99 98 96 95 96 99 95 94 91 90 95 83 95 100 100 93 83 100 99 100 100 90 66 57 56 57 87 93 93 95 94 92 96 96 96
100 100 100 100 100 100 96 97 97 99 96 95 96 96 98 98 98 100 93 85 98 94 100 100 99 100 100 99 100 99 92 74 64 57 59 68 94 96 96 97 98 97 95 94
100 100 99 99 100 100 100 91 92 89 91 100 100 96 96 96 90 87 94 99 100 100 100 100 100 100 100 100 94 89 82 75 73 62 57 60 78 97 98 100 100 100 99 99
98 100 95 100 100 99 97 96 98 84 87 90 90 88 88 94 100 99 95 96 100 100 100 100 100 100 97 80 74 74 73 78 76 69 63 59 59 87 98 99 100 99 100 100
90 91 99 100 100 100 100 100 91 100 100 100 97 90 89 100 99 100 100 100 100 100 100 93 88 86 81 76 75 74 71 72 74 73 68 62 58 61 94 98 98 98 98 98
89 100 97 100 93 91 96 100 100 93 96 100 100 95 100 100 100 100 100 100 99 95 92 88 88 85 80 76 75 76 75 74 74 73 65 63 58 57 68 98 98 98 98 98